Home > Time Zones > World Clock > Weather > Italy > Siena > Past weeks

Flag for Italy Weather past 2 weeks in Siena, Italy

Now
73 °F

Passing clouds.


Feels Like: 75 °F
Forecast: 63 / 87 °F
Wind: 2 mph from East

Location: Florence / Peretola

Current Time: Jul 30, 2015 at 7:00:50 AM

Latest Report: Jul 30, 2015 at 5:50 AM


Visibility: N/A

Pressure: 29.80 "Hg

Humidity: 74%

Dew point: 64 °F

Location of SienaLocation

Historic Weather in Siena — Graph

°F

Siena temperature yesterday

Maximum temperature yesterday: 88 °F (at 1:20 PM)
Minimum temperature yesterday: 68 °F (at 3:50 AM)
Average temperature yesterday: 78 °F

Past Weeks' High & Low Weather Summary

 TemperatureHumidityPressure
High102 °F (Jul 22, 4:50 PM)94% (Jul 23, 2:20 AM)30.09 "Hg (Jul 23, 2:20 AM)
Low66 °F (Jul 19, 6:20 AM)16% (Jul 22, 2:50 PM)29.74 "Hg (Jul 23, 5:20 PM)
Average82 °F53%29.89 "Hg
* Reported Jul 15 5:20 AM — Jul 30 5:20 AM, Siena, Weather by CustomWeather, © 2015

Note: Actual official high and low records may vary slightly from our data, if they occured in-between our weather recording intervals... More about our weather records

Advertising

Siena weather history for previous 24 hours

 ConditionsComfort  
Time TempWeatherWind HumidityBarometerVisibility
5:20 AM
Thu, Jul 30
72 °FPassing clouds.2 mph78%29.80 "HgN/A
4:50 AM73 °FPassing clouds.3 mph74%29.80 "HgN/A
4:20 AM73 °FPassing clouds.6 mph74%29.80 "HgN/A
3:50 AM75 °FPassing clouds.2 mph69%29.80 "HgN/A
3:20 AM75 °FPassing clouds.3 mph69%29.80 "HgN/A
2:50 AM73 °FPassing clouds.2 mph74%29.80 "HgN/A
2:20 AM72 °FPassing clouds.2 mph73%29.80 "HgN/A
1:50 AM72 °FPassing clouds.2 mph73%29.83 "HgN/A
1:20 AM72 °FPassing clouds.1 mph73%29.83 "HgN/A
12:50 AM72 °FPassing clouds.2 mph73%29.83 "HgN/A
12:20 AM73 °FPassing clouds.2 mph69%29.83 "HgN/A
11:50 PM
Wed, Jul 29
73 °FPassing clouds.2 mph69%29.83 "HgN/A
11:20 PM75 °FPassing clouds.No wind61%29.83 "HgN/A
10:50 PM75 °FPassing clouds.2 mph61%29.83 "HgN/A
10:20 PM77 °FPassing clouds.7 mph54%29.80 "HgN/A
9:50 PM79 °FPassing clouds.10 mph51%29.80 "HgN/A
9:20 PM79 °FPassing clouds.14 mph48%29.80 "HgN/A
8:50 PM81 °FPassing clouds.14 mph45%29.80 "HgN/A
8:20 PM81 °FPassing clouds.10 mph45%29.80 "HgN/A
7:50 PM81 °FPassing clouds.10 mph51%29.80 "HgN/A
7:20 PM82 °FPassing clouds.14 mph45%29.77 "HgN/A
6:50 PM84 °FPassing clouds.15 mph40%29.77 "HgN/A
6:20 PM84 °FPassing clouds.17 mph40%29.77 "HgN/A
5:50 PM86 °FSunny.16 mph35%29.77 "Hg10 mi
5:20 PM84 °FPassing clouds.16 mph40%29.77 "HgN/A
4:50 PM86 °FSunny.17 mph35%29.77 "Hg10 mi
4:20 PM86 °FSunny.15 mph38%29.77 "Hg10 mi
3:50 PM86 °FPassing clouds.15 mph40%29.80 "HgN/A
3:20 PM88 °FPassing clouds.14 mph35%29.80 "HgN/A
2:50 PM88 °FPassing clouds.17 mph38%29.80 "HgN/A
2:20 PM88 °FPassing clouds.14 mph38%29.80 "HgN/A
1:50 PM88 °FPassing clouds.18 mph35%29.80 "HgN/A
1:20 PM88 °FScattered clouds.15 mph33%29.80 "HgN/A
12:50 PM84 °FPartly sunny.12 mph45%29.80 "HgN/A
12:20 PM84 °FScattered clouds.12 mph45%29.80 "HgN/A
11:50 AM84 °FPartly sunny.9 mph45%29.80 "HgN/A
11:20 AM84 °FPartly sunny.10 mph48%29.83 "HgN/A
10:50 AM81 °FPartly sunny.9 mph54%29.83 "HgN/A
10:20 AM79 °FScattered clouds.5 mph54%29.83 "HgN/A
9:50 AM81 °FScattered clouds.3 mph54%29.83 "HgN/A
9:20 AM79 °FPassing clouds.2 mph58%29.83 "HgN/A
8:50 AM77 °FScattered clouds.3 mph61%29.83 "HgN/A
8:20 AM75 °FScattered clouds.6 mph65%29.83 "HgN/A
7:50 AM73 °FScattered clouds.3 mph69%29.83 "HgN/A
7:20 AM72 °FPassing clouds.2 mph73%29.83 "HgN/A
Weather by CustomWeather, © 2015

See weather overviewHow to use our weather pages